When you browse on this site, cookies collect data to enhance your experience and personalize the content and advertising you see.
Visit our Privacy Policy to learn more. By continuing to use the site, you agree to this use of cookies and data.

Hourly Weather Chakhansur

Today, 4 August, Tuesday

Time Temperature Precipitation Wind Pressure Humidity
00:00 +34°C° 0 mm 13 mps 706 mmHg 12%
01:00 +34°C° 0 mm 14 mps 705 mmHg 13%
02:00 +33°C° 0 mm 13 mps 705 mmHg 13%
03:00 +32°C° 0 mm 13 mps 705 mmHg 14%
04:00 +32°C° 0 mm 12 mps 705 mmHg 15%
05:00 +32°C° 0 mm 12 mps 706 mmHg 14%
06:00 +33°C° 0 mm 13 mps 706 mmHg 14%
07:00 +33°C° 0 mm 13 mps 707 mmHg 13%
08:00 +37°C° 0 mm 12 mps 707 mmHg 11%
09:00 +39°C° 0 mm 12 mps 707 mmHg 9%
10:00 +43°C° 0 mm 11 mps 707 mmHg 7%
11:00 +44°C° 0 mm 10 mps 707 mmHg 7%
12:00 +47°C° 0 mm 9 mps 707 mmHg 6%
13:00 +48°C° 0 mm 8 mps 706 mmHg 5%
14:00 +49°C° 0 mm 9 mps 706 mmHg 4%
15:00 +49°C° 0 mm 10 mps 705 mmHg 4%
16:00 +49°C° 0 mm 11 mps 705 mmHg 4%
17:00 +47°C° 0 mm 11 mps 705 mmHg 6%
18:00 +44°C° 0 mm 12 mps 705 mmHg 7%
19:00 +42°C° 0 mm 12 mps 705 mmHg 9%
20:00 +39°C° 0 mm 12 mps 705 mmHg 10%
21:00 +38°C° 0 mm 11 mps 705 mmHg 11%
22:00 +37°C° 0 mm 11 mps 705 mmHg 12%
23:00 +36°C° 0 mm 10 mps 706 mmHg 13%

Tomorrow, 5 August, Wednesday

Time Temperature Precipitation Wind Pressure Humidity
00:00 +34°C° 0 mm 9 mps 706 mmHg 14%
01:00 +33°C° 0 mm 8 mps 706 mmHg 15%
02:00 +32°C° 0 mm 9 mps 706 mmHg 19%
03:00 +31°C° 0 mm 9 mps 706 mmHg 23%
04:00 +29°C° 0 mm 9 mps 706 mmHg 26%
05:00 +29°C° 0 mm 9 mps 706 mmHg 28%
06:00 +31°C° 0 mm 9 mps 707 mmHg 29%
07:00 +31°C° 0 mm 9 mps 707 mmHg 30%
08:00 +34°C° 0 mm 9 mps 708 mmHg 25%
09:00 +37°C° 0 mm 8 mps 708 mmHg 20%
10:00 +40°C° 0 mm 7 mps 709 mmHg 14%
11:00 +42°C° 0 mm 6 mps 708 mmHg 12%
12:00 +45°C° 0 mm 6 mps 708 mmHg 10%
13:00 +46°C° 0 mm 5 mps 708 mmHg 7%
14:00 +47°C° 0 mm 5 mps 707 mmHg 7%
15:00 +47°C° 0 mm 5 mps 707 mmHg 6%
16:00 +48°C° 0 mm 4 mps 706 mmHg 6%
17:00 +46°C° 0 mm 6 mps 706 mmHg 8%
18:00 +43°C° 0 mm 7 mps 706 mmHg 10%
19:00 +40°C° 0 mm 8 mps 706 mmHg 12%
20:00 +39°C° 0 mm 8 mps 707 mmHg 14%
21:00 +37°C° 0 mm 8 mps 707 mmHg 16%
22:00 +35°C° 0 mm 7 mps 707 mmHg 18%
23:00 +34°C° 0 mm 7 mps 707 mmHg 20%

Day after tomorrow, 6 August, Thursday

Time Temperature Precipitation Wind Pressure Humidity
00:00 +32°C° 0 mm 6 mps 707 mmHg 22%
01:00 +30°C° 0 mm 6 mps 707 mmHg 24%
02:00 +29°C° 0 mm 5 mps 707 mmHg 25%
03:00 +28°C° 0 mm 5 mps 707 mmHg 26%
04:00 +28°C° 0 mm 5 mps 707 mmHg 27%
05:00 +28°C° 0 mm 5 mps 707 mmHg 25%
06:00 +29°C° 0 mm 5 mps 708 mmHg 24%
07:00 +30°C° 0 mm 5 mps 709 mmHg 22%
08:00 +34°C° 0 mm 5 mps 709 mmHg 19%
09:00 +37°C° 0 mm 4 mps 709 mmHg 15%
10:00 +39°C° 0 mm 3 mps 710 mmHg 12%
11:00 +42°C° 0 mm 3 mps 709 mmHg 10%
12:00 +44°C° 0 mm 3 mps 709 mmHg 9%
13:00 +46°C° 0 mm 2 mps 709 mmHg 7%
14:00 +47°C° 0 mm 2 mps 708 mmHg 6%
15:00 +47°C° 0 mm 2 mps 708 mmHg 5%
16:00 +48°C° 0 mm 2 mps 707 mmHg 5%
17:00 +43°C° 0 mm 2 mps 707 mmHg 6%
18:00 +40°C° 0 mm 2 mps 707 mmHg 7%
19:00 +37°C° 0 mm 2 mps 706 mmHg 8%
20:00 +36°C° 0 mm 2 mps 707 mmHg 9%
21:00 +36°C° 0 mm 3 mps 707 mmHg 11%
22:00 +35°C° 0 mm 4 mps 707 mmHg 12%
23:00 +34°C° 0 mm 5 mps 707 mmHg 14%

7 August, Friday

Time Temperature Precipitation Wind Pressure Humidity
00:00 +33°C° 0 mm 5 mps 707 mmHg 16%
01:00 +32°C° 0 mm 6 mps 706 mmHg 18%
02:00 +32°C° 0 mm 6 mps 706 mmHg 19%
03:00 +30°C° 0 mm 6 mps 706 mmHg 20%
04:00 +29°C° 0 mm 6 mps 706 mmHg 21%
05:00 +30°C° 0 mm 6 mps 707 mmHg 20%
06:00 +32°C° 0 mm 7 mps 707 mmHg 19%
07:00 +33°C° 0 mm 7 mps 708 mmHg 18%
08:00 +35°C° 0 mm 7 mps 708 mmHg 15%
09:00 +39°C° 0 mm 7 mps 708 mmHg 13%
10:00 +43°C° 0 mm 7 mps 709 mmHg 10%
11:00 +45°C° 0 mm 7 mps 708 mmHg 8%
12:00 +47°C° 0 mm 6 mps 708 mmHg 7%
13:00 +49°C° 0 mm 6 mps 708 mmHg 6%
14:00 +51°C° 0 mm 6 mps 707 mmHg 5%
15:00 +51°C° 0 mm 6 mps 707 mmHg 5%
16:00 +52°C° 0 mm 6 mps 706 mmHg 5%
17:00 +50°C° 0 mm 7 mps 706 mmHg 6%
18:00 +46°C° 0 mm 8 mps 706 mmHg 7%
19:00 +44°C° 0 mm 9 mps 706 mmHg 9%
20:00 +43°C° 0 mm 10 mps 706 mmHg 10%
21:00 +40°C° 0 mm 10 mps 706 mmHg 11%
22:00 +38°C° 0 mm 10 mps 706 mmHg 13%
23:00 +37°C° 0 mm 9 mps 706 mmHg 14%

8 August, Saturday

Time Temperature Precipitation Wind Pressure Humidity
00:00 +35°C° 0 mm 9 mps 706 mmHg 16%
01:00 +34°C° 0 mm 9 mps 705 mmHg 17%
02:00 +33°C° 0 mm 9 mps 705 mmHg 19%
03:00 +32°C° 0 mm 9 mps 706 mmHg 20%
04:00 +31°C° 0 mm 9 mps 706 mmHg 22%
05:00 +32°C° 0 mm 9 mps 706 mmHg 22%
06:00 +32°C° 0 mm 9 mps 707 mmHg 22%
07:00 +33°C° 0 mm 9 mps 707 mmHg 21%
08:00 +35°C° 0 mm 9 mps 708 mmHg 18%
09:00 +39°C° 0 mm 8 mps 708 mmHg 14%
10:00 +43°C° 0 mm 8 mps 708 mmHg 11%
11:00 +45°C° 0 mm 7 mps 708 mmHg 10%
12:00 +47°C° 0 mm 7 mps 708 mmHg 9%
13:00 +49°C° 0 mm 6 mps 708 mmHg 7%
14:00 +49°C° 0 mm 6 mps 707 mmHg 7%
15:00 +51°C° 0 mm 6 mps 707 mmHg 7%
16:00 +51°C° 0 mm 7 mps 706 mmHg 7%
17:00 +49°C° 0 mm 7 mps 706 mmHg 8%
18:00 +46°C° 0 mm 8 mps 706 mmHg 10%
19:00 +43°C° 0 mm 9 mps 706 mmHg 11%
20:00 +42°C° 0 mm 9 mps 706 mmHg 13%
21:00 +40°C° 0 mm 10 mps 706 mmHg 14%
22:00 +38°C° 0 mm 10 mps 706 mmHg 16%
23:00 +37°C° 0 mm 10 mps 706 mmHg 18%

9 August, Sunday

Time Temperature Precipitation Wind Pressure Humidity
00:00 +36°C° 0 mm 10 mps 706 mmHg 19%
01:00 +34°C° 0 mm 10 mps 706 mmHg 21%
02:00 +33°C° 0 mm 10 mps 706 mmHg 22%
03:00 +33°C° 0 mm 11 mps 706 mmHg 23%
04:00 +32°C° 0 mm 11 mps 706 mmHg 24%
05:00 +32°C° 0 mm 12 mps 706 mmHg 24%
06:00 +32°C° 0 mm 12 mps 707 mmHg 24%
07:00 +33°C° 0 mm 12 mps 707 mmHg 24%
08:00 +36°C° 0 mm 12 mps 708 mmHg 20%
09:00 +39°C° 0 mm 12 mps 708 mmHg 16%
10:00 +43°C° 0 mm 12 mps 708 mmHg 13%
11:00 +46°C° 0 mm 13 mps 708 mmHg 11%
12:00 +47°C° 0 mm 14 mps 707 mmHg 9%
13:00 +50°C° 0 mm 14 mps 707 mmHg 7%
14:00 +48°C° 0 mm 14 mps 707 mmHg 7%
15:00 +48°C° 0 mm 14 mps 706 mmHg 7%
16:00 +48°C° 0 mm 14 mps 706 mmHg 7%
17:00 +46°C° 0 mm 13 mps 705 mmHg 9%
18:00 +43°C° 0 mm 12 mps 705 mmHg 11%
19:00 +41°C° 0 mm 11 mps 705 mmHg 13%
20:00 +39°C° 0 mm 12 mps 705 mmHg 15%
21:00 +37°C° 0 mm 12 mps 705 mmHg 17%
22:00 +36°C° 0 mm 12 mps 706 mmHg 19%
23:00 +36°C° 0 mm 12 mps 705 mmHg 19%
Show more